Showing default

BEIDOU 3M9, 43581

Orbit data source: Space-Track

BEIDOU 3M9, 43581 is a payload satellite owned by CNSA (CN) in MEO that was launched on Sun, 29 Jul 2018 UTC via a CHANG ZHENG 3B/YZ-1 launch vehicle from the Xichang Space Center, China (XSC). Payloads include a variety of satellites, spacecraft, and rockets equipped with specific instruments for various scientific and technological missions. These include communications satellites like Starlink; space stations such as the ISS; scientific satellites like the Hubble; Earth observation satellites from companies like Planet Labs, Umbra, and HawkEye 360; GPS; miniature CubeSats for education and research; and military/defense satellites.

Loading next visibility...
BEIDOU 3M9 details
Identifier
43581, 2018-062A
Orbit
MEO
Last TLE update10 hours ago
Origin
Flag of CNCNSA (CN / PRC)
ManufacturerCAST
MissionOperational Defense Navigation
Bus & MotorBD-3M, Unknown motor
Mass1,014 kg wet, ~850 kg dry
Launch date (UTC)
2018-07-29 (6 years ago)
Launch vehicle
CHANG ZHENG 3B/YZ-1
Launch site
Xichang Space Center, China (XSC)
Object type
Payload
Rocket body
Debris
Shape & HBRBox + 2 Pan, 10 m
Radar Cross Section8.984 m², Large (>1 m²)

Expand to show TLE details & history

TLE from 10 hours ago
0 BEIDOU 3M9
1 43581U 18062A   24361.07741842  .00000121  00000-0  00000-0 0  9991
2 43581  54.1127 200.6021 0001890 352.0225   8.0428  1.86228934 43610
Epoch: 2024-12-26T01:51Z
Definitive object data (Epoch: 2024-12-26T01:51:28.951Z)
Latitude
Longitude77.6784°
Altitude21,523.289 km
Speed3.78 km/s
True Right ascension13h 22m 26s
True Declination0° 00' 00"
Sunlit
Object was in daylight at TLE epoch
Visualization TLE readout
Latitude-49.94392°
Longitude18.34432°
Altitude21,543.881 km
Speed3.779 km/s
Apparent Right ascension08h 42m 18s
Apparent Declination-61° 01' 13"
Sunlit
Object is in daylight
Visualization observer readout
Local Sidereal Time11:34:05
Azimuth200.172° SSW
Elevation-16.817°
Doppler factor1
Orbital elements
Apogee altitude21,533.574 km
Perigee altitude21,523.025 km
Semi-major axis27,906.436 km
Eccentricity0.000189
Inclination54.1127°
RAAN200.6021°
Arg. of periapsis352.0225°
True anomaly8.04583°
Mean anomaly8.0428°
Eccentric anomaly8.04432°
Mean motion0.46557 °/min
BSTARUnknown
Orbital period773.24 mins
Loading maneuver chart data...
Loading historical data...
Loading historical data...
Loading historical data...
Loading historical data...
Loading historical data...
Loading historical data...
Loading historical data...
Other satellites on launch #62 in the year 2018 (2018-07-29 UTC)

BEIDOU 3M9 Visibility forecast

Observer location: undefined°, undefined

Span
Click to sort rows by Start time (UTC) header in descending order
Start Az.
Max El. time (UTC)
Max El. Az.
Max El.
End time (UTC)
End Az.
419 mins2024-12-26 13:35:37.149Z193.737° SSW2024-12-26 16:39:37.149Z304.819° NW44.987°2024-12-26 20:34:37.149Z91.265° ESE
|